CZ-4B DEB, 46480

Orbit data source: Space-Track

CZ-4B DEB, 46480 is space debris in SSO originally from a launch on Sun, 27 Sep 2020 UTC launched from the Taiyaun Space Center, China (TSC). Debris objects in space refer to the collection of defunct objects orbiting the Earth. Examples of debris include non-operational satellites, rocket bodies, and fragments generated from explosions, collisions, or faulty payload assembly.

Loading next visibility...
Identifier
46480, 2020-067C
Orbit
SSO
Country
Flag of CNCN / PRC
Related business
Manufacturer
SAST
Mission
Spacecraft
Bus & Motor
Unknown
Mass
Unknown
Launch date (UTC)
2020-09-27 (5 years ago)
Launch vehicle
Unknown
Launch site
Taiyaun Space Center, China (TSC)
Object type
Payload
Rocket body
Debris
Shape & HBR
Unknown shape, 2.7 m
Radar Cross Section
Large (>1 m²)

Expand to show TLE details & history
Last TLE update: 9 hours ago

TLE from 9 hours ago
0 CZ-4B DEB
1 46480U 20067C   25346.90760003  .00066042  00000-0  22129-2 0  9998
2 46480  97.8773  97.4286 0014511 216.1095 143.9166 15.30578642283719
Epoch: 2025-12-12T21:46Z
TLE epoch observation values (Epoch: 2025-12-12T21:46:56.642Z)
Latitude
-0°
Longitude
48.85011°
Altitude
485.218 km
Speed
7.618 km/s
True Right ascension
06h 29m 42s
True Declination
0° 00' 00"
Sunlit
Object was in full shadow at epoch
Visualization orbit readout
Latitude
Unknown
Longitude
Unknown
Altitude
Unknown
Speed
Unknown
Apparent Right ascension
Unknown
Apparent Declination
Unknown
Sunlit
N/A
Visualization observer readout
Local Sidereal Time
05:25:05
Azimuth
Unknown
Elevation
Unknown
Doppler factor
Unknown
Orbital elements
Apogee altitude
480.996 km
Perigee altitude
461.119 km
Semi-major axis
6,849.194 km
Eccentricity
0.00145
Inclination
97.8773°
RAAN
97.4286°
Arg. of periapsis
216.1095°
True anomaly
144.01439°
Mean anomaly
143.9166°
Eccentric anomaly
143.96551°
Mean motion
3.82899 °/min
Orbital period
94.02 mins
BSTAR
0.0022129
Loading maneuver chart data...
Computing Atmospheric mass density...
Loading historical data...
Loading historical data...
Loading historical data...
Loading historical data...
Loading historical data...
Loading historical data...
Loading historical data...

Documentation

Showing up to 5 results
|